Regional Weather Roundup
Issued by NWS

Home | Current Version | Previous Version | Graphics & Text | Print | Product List | Glossary On
Versions: 1 2 3 4 5 6 7 8 9 10 11 12 13 14 15 16 17 18 19 20 21 22 23 24 25 26 27 28 29 30 31 32 33 34 35 36 37 38 39 40 41 42 43 44 45 46 47 48 49 50
000
ASUS43 KFSD 181510
RWRSD

WEATHER ROUNDUP FOR SOUTH DAKOTA
NATIONAL WEATHER SERVICE SIOUX FALLS SD
900 AM CST SUN FEB 18 2018

NOTE: "FAIR" INDICATES FEW OR NO CLOUDS BELOW 12,000 FEET WITH NO
SIGNIFICANT WEATHER AND/OR OBSTRUCTIONS TO VISIBILITY.


SDZ001>005-009-010-012>017-181600-
NORTHWEST AND NORTH CENTRAL SOUTH DAKOTA

CITY           SKY/WX    TMP DP  RH WIND       PRES   REMARKS
BUFFALO          N/A     16  12  84 N16       29.50R WCI   1
FAITH            N/A     17  17 100 N17       29.52R WCI   1
MOBRIDGE       CLOUDY    24  19  81 NE14      29.52R WCI  12
$$

SDZ012>016-024>037-041>051-057-063-072>074-181600-
SOUTHWEST AND SOUTH CENTRAL SOUTH DAKOTA

CITY           SKY/WX    TMP DP  RH WIND       PRES   REMARKS
RAPID CTY ARPT PTSUNNY   30  26  85 NW15      29.50R WCI  19
PIERRE         CLOUDY    28  24  85 NW14      29.46R WCI  17
CUSTER         MOSUNNY   30  21  69 N7        29.47R WCI  23
ELLSWORTH AFB  PTSUNNY   32  30  93 N12       29.52R WCI  23
PHILIP         PTSUNNY   22  19  89 NW10      29.52R WCI  11
PINE RIDGE     PTSUNNY   36  22  56 CALM      29.52R
SPEARFISH      LGT SNOW  23  21  93 NW20G30   29.56R VSB 3/4 WCI   8
WINNER         FAIR      43  24  47 SW15      29.45R
$$

SDZ004>011-016>023-039-040-181600-
NORTHEAST SOUTH DAKOTA

CITY           SKY/WX    TMP DP  RH WIND       PRES   REMARKS
ABERDEEN       PTSUNNY   29  22  75 N8        29.53R WCI  21
WATERTOWN      CLOUDY    31  22  69 S17       29.49F WCI  19
BROOKINGS      CLOUDY    32  23  69 S18       29.52F WCI  20
SISSETON         N/A     26  20  77 SE13      29.57F WCI  15
$$

SDZ017-020-022-023-036>040-048>070-181600-
SOUTHEAST SOUTH DAKOTA

CITY           SKY/WX    TMP DP  RH WIND       PRES   REMARKS
SIOUX FALLS    CLOUDY    37  25  61 S18G28    29.56F
HURON          CLOUDY    33  24  69 S12       29.46F WCI  24
CHAMBERLAIN    CLOUDY    39  28  63 W14       29.47R
MITCHELL       CLOUDY    40  25  55 S14       29.48F
YANKTON        CLOUDY    41  25  53 S23G37    29.55F
$$

ABBREVIATIONS USED IN REMARKS
   TC - TEMPERATURE IN CELSIUS
  WCI - WIND CHILL INDEX
   HX - HEAT INDEX
  VSB - VISIBILITY





USA.gov is the U.S. government's official web portal to all federal, state and local government web resources and services.